Hourly Weather Barnowiec

Today, 29 September, Tuesday

Time Temperature Precipitation Wind Pressure Humidity
00:00 +13°C° 0 mm 1 mps 749 mmHg 69%
01:00 +13°C° 0 mm 1 mps 749 mmHg 68%
02:00 +13°C° 0 mm 1 mps 749 mmHg 69%
03:00 +13°C° 0 mm 1 mps 749 mmHg 70%
04:00 +12°C° 0 mm 1 mps 749 mmHg 70%
05:00 +12°C° 0 mm 2 mps 749 mmHg 71%
06:00 +12°C° 0 mm 2 mps 749 mmHg 72%
07:00 +13°C° 0 mm 2 mps 749 mmHg 72%
08:00 +14°C° 0 mm 2 mps 749 mmHg 68%
09:00 +15°C° 0 mm 2 mps 750 mmHg 64%
10:00 +16°C° 0 mm 2 mps 750 mmHg 59%
11:00 +17°C° 0 mm 2 mps 750 mmHg 56%
12:00 +18°C° 0 mm 2 mps 750 mmHg 53%
13:00 +19°C° 0 mm 3 mps 750 mmHg 49%
14:00 +19°C° 0 mm 3 mps 750 mmHg 52%
15:00 +18°C° 0 mm 3 mps 750 mmHg 56%
16:00 +18°C° 0 mm 3 mps 749 mmHg 59%
17:00 +16°C° 0 mm 2 mps 750 mmHg 67%
18:00 +15°C° 0 mm 2 mps 750 mmHg 75%
19:00 +13°C° 0 mm 2 mps 750 mmHg 82%
20:00 +13°C° 0 mm 2 mps 750 mmHg 86%
21:00 +12°C° 0 mm 1 mps 750 mmHg 89%
22:00 +12°C° 0 mm 1 mps 750 mmHg 92%
23:00 +12°C° 0 mm 1 mps 750 mmHg 92%

Tomorrow, 30 September, Wednesday

Time Temperature Precipitation Wind Pressure Humidity
00:00 +12°C° 0 mm 1 mps 750 mmHg 92%
01:00 +12°C° 0 mm 1 mps 750 mmHg 93%
02:00 +12°C° 0 mm 1 mps 750 mmHg 93%
03:00 +12°C° 0 mm 1 mps 750 mmHg 93%
04:00 +12°C° 0 mm 1 mps 749 mmHg 93%
05:00 +12°C° 0 mm 1 mps 749 mmHg 92%
06:00 +13°C° 0 mm 1 mps 750 mmHg 92%
07:00 +13°C° 0 mm 1 mps 750 mmHg 91%
08:00 +14°C° 0 mm 1 mps 750 mmHg 82%
09:00 +16°C° 0 mm 2 mps 750 mmHg 73%
10:00 +18°C° 0 mm 2 mps 750 mmHg 64%
11:00 +18°C° 0 mm 2 mps 750 mmHg 60%
12:00 +19°C° 0 mm 2 mps 749 mmHg 56%
13:00 +20°C° 0 mm 2 mps 749 mmHg 51%
14:00 +19°C° 0 mm 2 mps 749 mmHg 53%
15:00 +19°C° 0 mm 2 mps 749 mmHg 55%
16:00 +18°C° 0 mm 3 mps 749 mmHg 57%
17:00 +16°C° 0 mm 3 mps 749 mmHg 64%
18:00 +14°C° 0 mm 3 mps 749 mmHg 71%
19:00 +13°C° 0 mm 2 mps 748 mmHg 79%
20:00 +13°C° 0 mm 2 mps 748 mmHg 82%
21:00 +13°C° 0 mm 2 mps 748 mmHg 84%
22:00 +12°C° 0 mm 2 mps 748 mmHg 87%
23:00 +12°C° 0 mm 2 mps 748 mmHg 89%

Day after tomorrow, 1 October, Thursday

Time Temperature Precipitation Wind Pressure Humidity
00:00 +12°C° 0 mm 2 mps 747 mmHg 91%
01:00 +12°C° 0 mm 2 mps 747 mmHg 93%
02:00 +12°C° 0 mm 2 mps 747 mmHg 94%
03:00 +12°C° 0 mm 2 mps 746 mmHg 95%
04:00 +12°C° 0 mm 2 mps 746 mmHg 96%
05:00 +12°C° 0 mm 2 mps 746 mmHg 94%
06:00 +13°C° 0 mm 2 mps 746 mmHg 92%
07:00 +12°C° 0 mm 3 mps 745 mmHg 90%
08:00 +13°C° 0 mm 3 mps 745 mmHg 82%
09:00 +14°C° 0 mm 3 mps 745 mmHg 73%
10:00 +17°C° 0 mm 3 mps 745 mmHg 65%
11:00 +17°C° 0 mm 3 mps 744 mmHg 60%
12:00 +18°C° 0 mm 3 mps 744 mmHg 55%
13:00 +19°C° 0 mm 3 mps 744 mmHg 49%
14:00 +18°C° 0 mm 3 mps 744 mmHg 52%
15:00 +18°C° 0 mm 3 mps 744 mmHg 55%
16:00 +17°C° 0 mm 3 mps 743 mmHg 59%
17:00 +16°C° 0 mm 3 mps 744 mmHg 63%
18:00 +14°C° 0 mm 3 mps 744 mmHg 67%
19:00 +13°C° 0 mm 3 mps 744 mmHg 72%
20:00 +13°C° 0 mm 3 mps 744 mmHg 76%
21:00 +12°C° 0 mm 3 mps 744 mmHg 79%
22:00 +12°C° 0 mm 3 mps 744 mmHg 83%
23:00 +12°C° 0 mm 3 mps 744 mmHg 85%

2 October, Friday

Time Temperature Precipitation Wind Pressure Humidity
00:00 +11°C° 0 mm 3 mps 744 mmHg 86%
01:00 +11°C° 0 mm 3 mps 744 mmHg 88%
02:00 +11°C° 0 mm 3 mps 744 mmHg 90%
03:00 +10°C° 0 mm 3 mps 744 mmHg 92%
04:00 +10°C° 0 mm 3 mps 744 mmHg 94%
05:00 +10°C° 0 mm 3 mps 744 mmHg 94%
06:00 +11°C° 0 mm 3 mps 744 mmHg 93%
07:00 +11°C° 0 mm 3 mps 745 mmHg 93%
08:00 +12°C° 0 mm 4 mps 745 mmHg 88%
09:00 +13°C° 0 mm 4 mps 745 mmHg 82%
10:00 +15°C° 0 mm 5 mps 745 mmHg 77%
11:00 +15°C° 0 mm 4 mps 745 mmHg 73%
12:00 +17°C° 0 mm 4 mps 745 mmHg 69%
13:00 +18°C° 0 mm 4 mps 745 mmHg 65%
14:00 +18°C° 0 mm 4 mps 745 mmHg 66%
15:00 +18°C° 0 mm 4 mps 745 mmHg 66%
16:00 +18°C° 0 mm 4 mps 745 mmHg 66%
17:00 +17°C° 0 mm 4 mps 745 mmHg 72%
18:00 +15°C° 0 mm 4 mps 745 mmHg 77%
19:00 +14°C° 0 mm 3 mps 745 mmHg 82%
20:00 +13°C° 0 mm 3 mps 745 mmHg 83%
21:00 +13°C° 0 mm 3 mps 745 mmHg 85%
22:00 +12°C° 0 mm 3 mps 745 mmHg 87%
23:00 +12°C° 0 mm 3 mps 745 mmHg 88%

3 October, Saturday

Time Temperature Precipitation Wind Pressure Humidity
00:00 +12°C° 0 mm 3 mps 744 mmHg 90%
01:00 +11°C° 0 mm 3 mps 744 mmHg 92%
02:00 +11°C° 0 mm 3 mps 744 mmHg 93%
03:00 +11°C° 0 mm 3 mps 744 mmHg 94%
04:00 +11°C° 0 mm 3 mps 744 mmHg 95%
05:00 +11°C° 0 mm 4 mps 743 mmHg 94%
06:00 +11°C° 0 mm 4 mps 743 mmHg 93%
07:00 +11°C° 0 mm 4 mps 743 mmHg 92%
08:00 +12°C° 0 mm 5 mps 743 mmHg 88%
09:00 +13°C° 0 mm 5 mps 743 mmHg 84%
10:00 +13°C° 0 mm 6 mps 743 mmHg 80%
11:00 +14°C° 0 mm 6 mps 743 mmHg 76%
12:00 +15°C° 0 mm 6 mps 743 mmHg 72%
13:00 +16°C° 0 mm 6 mps 743 mmHg 68%
14:00 +17°C° 0 mm 6 mps 743 mmHg 67%
15:00 +17°C° 0 mm 6 mps 742 mmHg 65%
16:00 +17°C° 0 mm 6 mps 742 mmHg 64%
17:00 +17°C° 0 mm 6 mps 742 mmHg 66%
18:00 +16°C° 0 mm 6 mps 742 mmHg 69%
19:00 +15°C° 0 mm 6 mps 742 mmHg 71%
20:00 +15°C° 0 mm 6 mps 742 mmHg 74%
21:00 +14°C° 0 mm 6 mps 742 mmHg 78%
22:00 +14°C° 0 mm 6 mps 742 mmHg 81%
23:00 +14°C° 0 mm 6 mps 742 mmHg 82%

4 October, Sunday

Time Temperature Precipitation Wind Pressure Humidity
00:00 +13°C° 0 mm 6 mps 741 mmHg 83%
01:00 +13°C° 0 mm 6 mps 741 mmHg 85%
02:00 +13°C° 0 mm 6 mps 740 mmHg 85%
03:00 +12°C° 0 mm 7 mps 740 mmHg 86%
04:00 +12°C° 0 mm 7 mps 739 mmHg 87%
05:00 +14°C° 0 mm 7 mps 739 mmHg 86%
06:00 +13°C° 0 mm 8 mps 738 mmHg 85%
07:00 +13°C° 0 mm 8 mps 738 mmHg 84%
08:00 +16°C° 0 mm 8 mps 737 mmHg 79%
09:00 +17°C° 0 mm 8 mps 737 mmHg 74%
10:00 +20°C° 0 mm 8 mps 737 mmHg 68%
11:00 +21°C° 0 mm 8 mps 737 mmHg 65%
12:00 +22°C° 0 mm 7 mps 737 mmHg 63%
13:00 +23°C° 0 mm 6 mps 737 mmHg 60%
14:00 +22°C° 0.3 mm 6 mps 737 mmHg 64%
15:00 +21°C° 0.3 mm 5 mps 737 mmHg 68%
16:00 +20°C° 0.3 mm 4 mps 737 mmHg 73%
17:00 +19°C° 0.1 mm 3 mps 738 mmHg 78%
18:00 +17°C° 0.1 mm 3 mps 738 mmHg 84%
19:00 +16°C° 0.1 mm 3 mps 738 mmHg 90%
20:00 +15°C° 0 mm 2 mps 738 mmHg 91%
21:00 +15°C° 0 mm 2 mps 738 mmHg 92%
22:00 +14°C° 0 mm 2 mps 738 mmHg 94%
23:00 +14°C° 0.6 mm 2 mps 738 mmHg 93%
Show more